QPF
0.00 0.00 0.00 0.00 0.00 0.00 0.00 0.00 0.00 0.01 0.04 0.06 0.04 0.03 0.03 0.04 0.04 0.04 0.05 0.06 0.07 0.08 0.09 0.08 0.09 0.11 0.13 0.15 0.19 0.22 0.19 0.15 0.12 0.10 0.08 0.06 0.05 0.07 0.06 0.06 0.07 0.06 0.05
0.00 0.00 0.00 0.00 0.00 0.01 0.01 0.01 0.00 0.01 0.02 0.03 0.03 0.03 0.04 0.04 0.03 0.03 0.03 0.04 0.06 0.07 0.08 0.09 0.10 0.11 0.12 0.14 0.17 0.21 0.24 0.21 0.15 0.12 0.10 0.07 0.06 0.07 0.06 0.07 0.07 0.06 0.06
0.00 0.00 0.00 0.00 0.01 0.00 0.01 0.01 0.01 0.01 0.01 0.01 0.02 0.03 0.04 0.05 0.05 0.04 0.04 0.03 0.03 0.05 0.07 0.09 0.09 0.11 0.10 0.10 0.13 0.16 0.20 0.23 0.22 0.18 0.16 0.13 0.11 0.10 0.10 0.10 0.09 0.08 0.08
0.00 0.00 0.00 0.00 0.00 0.01 0.01 0.01 0.00 0.00 0.01 0.01 0.03 0.04 0.04 0.03 0.03 0.05 0.05 0.04 0.03 0.03 0.04 0.06 0.08 0.10 0.13 0.11 0.09 0.11 0.16 0.21 0.26 0.25 0.22 0.23 0.20 0.16 0.16 0.17 0.18 0.17 0.15
0.00 0.00 0.00 0.00 0.00 0.00 0.00 0.00 0.00 0.00 0.00 0.01 0.03 0.06 0.04 0.02 0.02 0.03 0.04 0.04 0.04 0.04 0.04 0.04 0.06 0.08 0.10 0.13 0.12 0.10 0.12 0.16 0.20 0.26 0.27 0.28 0.29 0.24 0.18 0.15 0.15 0.18 0.21
0.00 0.00 0.00 0.00 0.00 0.00 0.00 0.00 0.00 0.00 0.00 0.01 0.01 0.02 0.02 0.01 0.02 0.02 0.03 0.04 0.04 0.05 0.05 0.05 0.06 0.08 0.09 0.08 0.10 0.12 0.13 0.15 0.17 0.20 0.22 0.25 0.28 0.27 0.23 0.20 0.17 0.17 0.18
0.00 0.00 0.00 0.00 0.00 0.00 0.00 0.00 0.00 0.00 0.00 0.00 0.00 0.00 0.01 0.01 0.02 0.02 0.02 0.03 0.04 0.04 0.04 0.05 0.06 0.06 0.10 0.11 0.10 0.11 0.12 0.14 0.17 0.19 0.19 0.18 0.21 0.24 0.22 0.22 0.20 0.16 0.14
0.00 0.00 0.00 0.00 0.00 0.00 0.00 0.00 0.00 0.00 0.00 0.00 0.00 0.00 0.00 0.01 0.01 0.02 0.02 0.03 0.04 0.04 0.05 0.05 0.06 0.08 0.10 0.14 0.14 0.13 0.14 0.13 0.14 0.17 0.18 0.19 0.19 0.21 0.23 0.22 0.20 0.17 0.15
0.00 0.00 0.00 0.00 0.00 0.00 0.00 0.00 0.00 0.00 0.00 0.00 0.01 0.01 0.01 0.01 0.01 0.02 0.03 0.04 0.05 0.03 0.03 0.05 0.07 0.09 0.09 0.16 0.21 0.19 0.18 0.16 0.15 0.17 0.19 0.22 0.24 0.24 0.25 0.23 0.19 0.16 0.14
0.00 0.00 0.00 0.00 0.00 0.00 0.00 0.00 0.00 0.00 0.00 0.00 0.01 0.01 0.00 0.00 0.01 0.02 0.02 0.04 0.06 0.05 0.05 0.07 0.09 0.12 0.12 0.14 0.21 0.22 0.19 0.17 0.14 0.14 0.17 0.22 0.24 0.25 0.25 0.20 0.15 0.12 0.11
0.00 0.00 0.00 0.00 0.00 0.00 0.00 0.00 0.00 0.00 0.00 0.00 0.01 0.00 0.00 0.00 0.01 0.02 0.03 0.04 0.06 0.06 0.07 0.08 0.11 0.15 0.19 0.19 0.21 0.21 0.20 0.19 0.18 0.16 0.15 0.18 0.21 0.23 0.22 0.19 0.15 0.12 0.10
0.00 0.00 0.00 0.00 0.00 0.00 0.00 0.00 0.00 0.00 0.00 0.00 0.00 0.00 0.00 0.00 0.01 0.02 0.04 0.04 0.05 0.08 0.11 0.11 0.12 0.18 0.23 0.25 0.23 0.21 0.20 0.20 0.22 0.20 0.16 0.14 0.16 0.18 0.18 0.15 0.12 0.12 0.12
0.00 0.00 0.00 0.00 0.00 0.00 0.00 0.00 0.00 0.00 0.00 0.00 0.00 0.00 0.00 0.00 0.01 0.03 0.04 0.04 0.05 0.09 0.13 0.12 0.14 0.21 0.24 0.25 0.25 0.22 0.18 0.17 0.19 0.21 0.17 0.13 0.14 0.14 0.13 0.11 0.10 0.09 0.09
0.00 0.00 0.00 0.00 0.00 0.00 0.00 0.00 0.00 0.00 0.00 0.00 0.00 0.00 0.01 0.01 0.01 0.02 0.03 0.04 0.07 0.09 0.09 0.09 0.13 0.19 0.22 0.22 0.21 0.22 0.20 0.18 0.18 0.17 0.15 0.14 0.15 0.13 0.11 0.09 0.07 0.07 0.07
0.00 0.00 0.00 0.00 0.00 0.00 0.00 0.00 0.00 0.00 0.00 0.00 0.00 0.00 0.01 0.01 0.01 0.02 0.03 0.04 0.05 0.07 0.07 0.08 0.10 0.12 0.15 0.16 0.14 0.17 0.18 0.15 0.15 0.14 0.12 0.13 0.13 0.12 0.10 0.08 0.07 0.05 0.04
0.00 0.00 0.00 0.00 0.00 0.00 0.00 0.00 0.00 0.00 0.00 0.00 0.00 0.00 0.01 0.01 0.01 0.01 0.02 0.03 0.04 0.05 0.04 0.06 0.08 0.09 0.08 0.09 0.10 0.11 0.11 0.10 0.10 0.10 0.09 0.09 0.10 0.10 0.09 0.06 0.06 0.05 0.03
0.00 0.00 0.00 0.00 0.00 0.00 0.00 0.00 0.00 0.00 0.00 0.00 0.00 0.00 0.01 0.01 0.00 0.00 0.00 0.00 0.01 0.02 0.02 0.03 0.04 0.04 0.03 0.04 0.06 0.06 0.05 0.06 0.07 0.06 0.05 0.06 0.07 0.08 0.10 0.07 0.06 0.04 0.03
0.00 0.00 0.00 0.00 0.00 0.00 0.00 0.00 0.00 0.00 0.00 0.00 0.00 0.00 0.00 0.00 0.00 0.00 0.00 0.00 0.00 0.01 0.01 0.01 0.01 0.02 0.02 0.02 0.02 0.02 0.02 0.03 0.05 0.03 0.03 0.04 0.03 0.06 0.08 0.08 0.05 0.03 0.02
0.00 0.00 0.00 0.00 0.00 0.00 0.00 0.00 0.00 0.00 0.00 0.00 0.00 0.00 0.00 0.00 0.00 0.00 0.00 0.00 0.00 0.00 0.00 0.01 0.00 0.00 0.01 0.01 0.01 0.01 0.01 0.01 0.03 0.04 0.03 0.02 0.02 0.02 0.04 0.05 0.05 0.03 0.02
0.00 0.00 0.00 0.00 0.00 0.00 0.00 0.00 0.00 0.00 0.00 0.00 0.00 0.00 0.00 0.00 0.00 0.00 0.00 0.00 0.00 0.00 0.00 0.00 0.00 0.00 0.00 0.00 0.01 0.01 0.00 0.01 0.02 0.02 0.02 0.01 0.01 0.01 0.01 0.01 0.01 0.01 0.01
0.00 0.00 0.00 0.00 0.00 0.00 0.00 0.00 0.00 0.00 0.00 0.00 0.00 0.00 0.00 0.00 0.00 0.00 0.00 0.00 0.00 0.00 0.00 0.00 0.00 0.00 0.00 0.00 0.01 0.01 0.01 0.01 0.01 0.01 0.01 0.01 0.01 0.01 0.00 0.00 0.00 0.00 0.00
0.00 0.00 0.00 0.00 0.00 0.00 0.00 0.00 0.00 0.00 0.00 0.00 0.00 0.00 0.00 0.00 0.00 0.00 0.00 0.00 0.00 0.00 0.00 0.00 0.00 0.00 0.00 0.00 0.00 0.00 0.01 0.01 0.00 0.00 0.01 0.01 0.01 0.00 0.00 0.00 0.00 0.00 0.00
0.00 0.00 0.00 0.00 0.00 0.00 0.00 0.00 0.00 0.00 0.00 0.00 0.00 0.00 0.00 0.00 0.00 0.00 0.00 0.00 0.00 0.00 0.00 0.00 0.00 0.00 0.00 0.00 0.00 0.00 0.00 0.00 0.00 0.00 0.00 0.00 0.01 0.01 0.00 0.00 0.00 0.00 0.00
0.00 0.00 0.00 0.00 0.00 0.00 0.00 0.00 0.00 0.00 0.00 0.00 0.00 0.00 0.00 0.00 0.00 0.00 0.00 0.00 0.00 0.00 0.00 0.00 0.00 0.00 0.00 0.00 0.00 0.00 0.00 0.00 0.00 0.00 0.00 0.00 0.01 0.01 0.00 0.00 0.00 0.00 0.00
0.00 0.00 0.00 0.00 0.00 0.00 0.00 0.00 0.00 0.00 0.00 0.00 0.00 0.00 0.00 0.00 0.00 0.00 0.00 0.00 0.00 0.00 0.00 0.00 0.00 0.00 0.00 0.00 0.00 0.00 0.00 0.00 0.00 0.00 0.00 0.00 0.00 0.00 0.00 0.00 0.00 0.00 0.00
0.00 0.00 0.00 0.00 0.00 0.00 0.00 0.00 0.00 0.00 0.00 0.00 0.00 0.00 0.00 0.00 0.00 0.00 0.00 0.00 0.00 0.00 0.00 0.00 0.00 0.00 0.00 0.00 0.00 0.00 0.00 0.00 0.00 0.00 0.00 0.00 0.00 0.00 0.00 0.00 0.00 0.00 0.00
MSLP
1016.31 1016.24 1016.11 1015.91 1015.64 1015.30 1014.92 1014.51 1014.11 1013.73 1013.40 1013.10 1012.84 1012.60 1012.35 1012.08 1011.77 1011.44 1011.10 1010.75 1010.43 1010.16 1009.98 1009.88 1009.88 1009.98 1010.16 1010.42 1010.72 1011.03 1011.35 1011.65 1011.92 1012.16 1012.36 1012.54 1012.71 1012.88 1013.09 1013.34 1013.64 1014.01 1014.44
1015.93 1015.89 1015.80 1015.65 1015.42 1015.13 1014.78 1014.40 1014.02 1013.65 1013.31 1013.01 1012.74 1012.48 1012.23 1011.96 1011.66 1011.33 1010.98 1010.61 1010.25 1009.93 1009.66 1009.48 1009.40 1009.42 1009.54 1009.76 1010.06 1010.41 1010.80 1011.18 1011.56 1011.90 1012.20 1012.46 1012.69 1012.90 1013.12 1013.36 1013.64 1013.98 1014.37
1015.60 1015.60 1015.55 1015.45 1015.27 1015.02 1014.71 1014.35 1013.98 1013.60 1013.25 1012.92 1012.63 1012.36 1012.09 1011.82 1011.53 1011.20 1010.85 1010.48 1010.11 1009.75 1009.43 1009.19 1009.03 1008.97 1009.03 1009.20 1009.47 1009.82 1010.23 1010.67 1011.11 1011.52 1011.91 1012.24 1012.54 1012.81 1013.08 1013.35 1013.65 1013.99 1014.39
1015.34 1015.38 1015.39 1015.33 1015.20 1014.98 1014.69 1014.35 1013.97 1013.58 1013.20 1012.85 1012.52 1012.22 1011.94 1011.66 1011.37 1011.05 1010.72 1010.36 1009.98 1009.60 1009.25 1008.96 1008.73 1008.60 1008.59 1008.69 1008.90 1009.21 1009.60 1010.04 1010.50 1010.96 1011.39 1011.79 1012.16 1012.50 1012.83 1013.17 1013.53 1013.93 1014.37
1015.14 1015.24 1015.28 1015.27 1015.16 1014.97 1014.70 1014.36 1013.97 1013.56 1013.15 1012.76 1012.40 1012.07 1011.76 1011.47 1011.18 1010.88 1010.55 1010.20 1009.83 1009.45 1009.08 1008.74 1008.46 1008.26 1008.16 1008.18 1008.31 1008.55 1008.87 1009.26 1009.70 1010.15 1010.60 1011.04 1011.46 1011.87 1012.29 1012.73 1013.19 1013.70 1014.24
1014.99 1015.12 1015.20 1015.20 1015.12 1014.95 1014.68 1014.33 1013.94 1013.51 1013.07 1012.65 1012.26 1011.90 1011.57 1011.26 1010.97 1010.67 1010.35 1010.01 1009.64 1009.26 1008.87 1008.49 1008.16 1007.89 1007.71 1007.63 1007.66 1007.80 1008.03 1008.34 1008.71 1009.12 1009.55 1010.00 1010.47 1010.95 1011.46 1012.01 1012.60 1013.24 1013.93
1014.82 1014.97 1015.07 1015.09 1015.02 1014.85 1014.58 1014.24 1013.83 1013.39 1012.94 1012.50 1012.08 1011.70 1011.35 1011.03 1010.73 1010.42 1010.10 1009.76 1009.39 1008.99 1008.58 1008.18 1007.80 1007.47 1007.21 1007.04 1006.97 1007.00 1007.12 1007.33 1007.61 1007.96 1008.35 1008.80 1009.28 1009.82 1010.42 1011.08 1011.81 1012.60 1013.44
1014.58 1014.75 1014.85 1014.87 1014.80 1014.63 1014.37 1014.04 1013.64 1013.20 1012.75 1012.31 1011.89 1011.50 1011.14 1010.80 1010.48 1010.16 1009.82 1009.46 1009.08 1008.67 1008.24 1007.80 1007.39 1007.01 1006.68 1006.44 1006.28 1006.22 1006.25 1006.36 1006.56 1006.84 1007.18 1007.61 1008.10 1008.68 1009.35 1010.11 1010.95 1011.87 1012.84
1014.26 1014.41 1014.50 1014.52 1014.45 1014.29 1014.04 1013.72 1013.35 1012.94 1012.52 1012.10 1011.69 1011.30 1010.94 1010.59 1010.25 1009.91 1009.55 1009.16 1008.75 1008.31 1007.86 1007.40 1006.96 1006.55 1006.19 1005.90 1005.69 1005.57 1005.53 1005.58 1005.72 1005.94 1006.24 1006.64 1007.14 1007.75 1008.46 1009.28 1010.20 1011.21 1012.27
1013.84 1013.96 1014.03 1014.03 1013.96 1013.81 1013.59 1013.31 1012.99 1012.63 1012.26 1011.88 1011.51 1011.15 1010.79 1010.44 1010.08 1009.71 1009.32 1008.90 1008.46 1008.00 1007.52 1007.05 1006.60 1006.18 1005.81 1005.51 1005.28 1005.14 1005.08 1005.10 1005.21 1005.40 1005.69 1006.08 1006.58 1007.19 1007.91 1008.76 1009.71 1010.74 1011.84
1013.33 1013.40 1013.44 1013.43 1013.36 1013.23 1013.05 1012.82 1012.56 1012.28 1011.98 1011.67 1011.35 1011.03 1010.70 1010.35 1009.99 1009.60 1009.18 1008.73 1008.26 1007.78 1007.28 1006.81 1006.36 1005.95 1005.60 1005.32 1005.11 1004.99 1004.94 1004.98 1005.10 1005.30 1005.59 1005.98 1006.48 1007.08 1007.80 1008.63 1009.56 1010.56 1011.63
1012.78 1012.79 1012.78 1012.74 1012.67 1012.56 1012.42 1012.26 1012.08 1011.88 1011.66 1011.44 1011.20 1010.93 1010.65 1010.33 1009.97 1009.58 1009.15 1008.68 1008.19 1007.69 1007.20 1006.72 1006.28 1005.90 1005.59 1005.35 1005.19 1005.11 1005.11 1005.19 1005.35 1005.59 1005.91 1006.32 1006.81 1007.41 1008.10 1008.88 1009.75 1010.68 1011.66
1012.24 1012.17 1012.09 1012.01 1011.92 1011.83 1011.73 1011.62 1011.52 1011.41 1011.29 1011.16 1011.00 1010.82 1010.59 1010.32 1010.00 1009.63 1009.20 1008.74 1008.25 1007.75 1007.26 1006.80 1006.39 1006.04 1005.76 1005.57 1005.46 1005.44 1005.50 1005.64 1005.86 1006.15 1006.51 1006.94 1007.44 1008.03 1008.68 1009.41 1010.19 1011.01 1011.87
1011.76 1011.58 1011.42 1011.28 1011.16 1011.06 1010.98 1010.92 1010.88 1010.85 1010.82 1010.78 1010.72 1010.62 1010.47 1010.27 1010.00 1009.68 1009.29 1008.86 1008.40 1007.93 1007.46 1007.02 1006.64 1006.32 1006.07 1005.92 1005.86 1005.89 1006.00 1006.19 1006.46 1006.79 1007.19 1007.65 1008.17 1008.74 1009.36 1010.03 1010.72 1011.44 1012.16
1011.39 1011.09 1010.82 1010.60 1010.41 1010.28 1010.19 1010.14 1010.14 1010.16 1010.21 1010.25 1010.27 1010.26 1010.20 1010.09 1009.91 1009.65 1009.34 1008.97 1008.56 1008.14 1007.72 1007.32 1006.96 1006.67 1006.45 1006.32 1006.28 1006.33 1006.47 1006.70 1006.99 1007.36 1007.79 1008.27 1008.80 1009.36 1009.96 1010.57 1011.20 1011.82 1012.43
1011.16 1010.73 1010.34 1010.00 1009.73 1009.53 1009.39 1009.33 1009.32 1009.37 1009.45 1009.54 1009.63 1009.70 1009.73 1009.71 1009.62 1009.47 1009.25 1008.97 1008.65 1008.30 1007.94 1007.59 1007.27 1007.00 1006.80 1006.67 1006.64 1006.68 1006.82 1007.05 1007.35 1007.72 1008.16 1008.64 1009.17 1009.73 1010.31 1010.89 1011.47 1012.03 1012.56
1011.10 1010.53 1010.00 1009.54 1009.16 1008.86 1008.65 1008.52 1008.48 1008.50 1008.57 1008.69 1008.81 1008.94 1009.04 1009.10 1009.11 1009.06 1008.95 1008.78 1008.56 1008.30 1008.02 1007.74 1007.47 1007.23 1007.04 1006.92 1006.87 1006.90 1007.01 1007.21 1007.49 1007.85 1008.27 1008.74 1009.26 1009.81 1010.38 1010.94 1011.50 1012.03 1012.52
1011.19 1010.50 1009.85 1009.27 1008.76 1008.35 1008.03 1007.81 1007.68 1007.64 1007.67 1007.75 1007.87 1008.01 1008.15 1008.27 1008.36 1008.40 1008.40 1008.34 1008.23 1008.08 1007.89 1007.69 1007.48 1007.29 1007.13 1007.01 1006.96 1006.97 1007.05 1007.22 1007.46 1007.78 1008.17 1008.62 1009.11 1009.65 1010.20 1010.76 1011.30 1011.82 1012.31
1011.44 1010.65 1009.90 1009.20 1008.59 1008.05 1007.62 1007.28 1007.04 1006.89 1006.83 1006.84 1006.91 1007.01 1007.15 1007.28 1007.41 1007.52 1007.60 1007.63 1007.63 1007.58 1007.49 1007.39 1007.26 1007.14 1007.02 1006.94 1006.90 1006.90 1006.97 1007.11 1007.32 1007.60 1007.95 1008.36 1008.82 1009.33 1009.86 1010.41 1010.95 1011.48 1011.97
1011.80 1010.96 1010.14 1009.37 1008.66 1008.02 1007.46 1007.00 1006.63 1006.35 1006.16 1006.06 1006.03 1006.06 1006.13 1006.24 1006.36 1006.48 1006.60 1006.69 1006.76 1006.81 1006.82 1006.81 1006.78 1006.75 1006.71 1006.69 1006.69 1006.73 1006.81 1006.95 1007.14 1007.40 1007.71 1008.08 1008.51 1008.98 1009.48 1010.01 1010.54 1011.06 1011.57
1012.24 1011.39 1010.56 1009.74 1008.97 1008.25 1007.60 1007.02 1006.52 1006.10 1005.77 1005.52 1005.35 1005.26 1005.22 1005.24 1005.30 1005.39 1005.49 1005.60 1005.71 1005.81 1005.90 1005.98 1006.05 1006.12 1006.19 1006.26 1006.35 1006.46 1006.60 1006.76 1006.97 1007.22 1007.51 1007.86 1008.24 1008.67 1009.13 1009.63 1010.13 1010.64 1011.15
1012.69 1011.89 1011.08 1010.27 1009.48 1008.72 1007.99 1007.32 1006.71 1006.16 1005.68 1005.28 1004.96 1004.71 1004.53 1004.41 1004.36 1004.35 1004.39 1004.45 1004.55 1004.67 1004.81 1004.96 1005.12 1005.29 1005.48 1005.67 1005.87 1006.08 1006.30 1006.54 1006.80 1007.07 1007.37 1007.69 1008.05 1008.44 1008.85 1009.30 1009.76 1010.24 1010.73
1013.09 1012.37 1011.62 1010.86 1010.09 1009.33 1008.58 1007.85 1007.15 1006.50 1005.90 1005.36 1004.88 1004.47 1004.13 1003.85 1003.64 1003.50 1003.42 1003.39 1003.42 1003.51 1003.65 1003.83 1004.05 1004.31 1004.60 1004.91 1005.24 1005.58 1005.91 1006.24 1006.57 1006.90 1007.22 1007.55 1007.88 1008.24 1008.61 1009.00 1009.42 1009.86 1010.31
1013.38 1012.76 1012.10 1011.41 1010.70 1009.96 1009.22 1008.47 1007.74 1007.02 1006.33 1005.68 1005.08 1004.53 1004.03 1003.60 1003.22 1002.92 1002.69 1002.53 1002.45 1002.46 1002.54 1002.71 1002.95 1003.26 1003.63 1004.04 1004.48 1004.93 1005.38 1005.82 1006.24 1006.63 1007.00 1007.34 1007.68 1008.01 1008.34 1008.69 1009.06 1009.46 1009.86
1013.51 1012.98 1012.42 1011.81 1011.17 1010.49 1009.79 1009.06 1008.33 1007.60 1006.88 1006.17 1005.48 1004.83 1004.21 1003.64 1003.11 1002.65 1002.25 1001.94 1001.72 1001.60 1001.60 1001.70 1001.91 1002.22 1002.62 1003.09 1003.62 1004.16 1004.71 1005.24 1005.75 1006.21 1006.63 1007.00 1007.34 1007.67 1007.98 1008.30 1008.64 1008.99 1009.36
1013.46 1013.01 1012.52 1011.99 1011.42 1010.81 1010.17 1009.50 1008.81 1008.11 1007.40 1006.69 1005.98 1005.28 1004.58 1003.91 1003.27 1002.66 1002.12 1001.65 1001.28 1001.01 1000.88 1000.87 1001.01 1001.27 1001.65 1002.14 1002.69 1003.29 1003.90 1004.51 1005.08 1005.60 1006.07 1006.48 1006.85 1007.18 1007.49 1007.80 1008.11 1008.44 1008.79
Thickness
5663 5659 5655 5652 5649 5647 5645 5643 5642 5642 5642 5642 5642 5643 5645 5646 5648 5651 5655 5658 5663 5668 5673 5677 5681 5685 5688 5691 5694 5696 5698 5699 5700 5705 5709 5714 5717 5720 5721 5722 5723 5722 5720
5665 5661 5657 5653 5650 5648 5646 5643 5642 5640 5639 5639 5639 5639 5640 5641 5643 5645 5648 5652 5656 5660 5665 5670 5675 5679 5682 5685 5688 5691 5693 5695 5696 5697 5700 5704 5709 5713 5714 5715 5716 5716 5715
5667 5662 5659 5656 5651 5648 5645 5643 5641 5639 5637 5636 5635 5635 5636 5637 5639 5641 5643 5647 5651 5655 5659 5664 5668 5672 5676 5679 5682 5685 5688 5690 5692 5692 5694 5697 5700 5703 5705 5706 5707 5707 5707
5670 5665 5660 5657 5652 5648 5646 5642 5640 5638 5635 5633 5632 5631 5631 5633 5635 5637 5639 5642 5646 5650 5654 5658 5662 5666 5670 5673 5677 5680 5682 5683 5685 5687 5688 5691 5692 5695 5697 5697 5697 5698 5698
5673 5667 5663 5659 5654 5649 5646 5642 5640 5636 5634 5631 5629 5628 5628 5629 5630 5630 5633 5638 5641 5645 5649 5653 5657 5660 5664 5668 5672 5675 5676 5678 5679 5681 5683 5684 5686 5687 5690 5691 5690 5689 5688
5676 5670 5665 5660 5655 5650 5646 5643 5640 5636 5633 5630 5628 5626 5625 5625 5624 5624 5627 5632 5637 5640 5643 5648 5652 5655 5658 5660 5664 5668 5672 5674 5675 5677 5678 5680 5683 5685 5685 5685 5684 5682 5679
5678 5673 5667 5662 5657 5652 5648 5644 5640 5637 5633 5629 5627 5625 5624 5623 5621 5622 5623 5628 5632 5636 5639 5643 5647 5652 5653 5658 5660 5662 5666 5669 5672 5675 5676 5678 5679 5681 5680 5679 5679 5678 5676
5680 5675 5669 5663 5658 5654 5649 5645 5641 5638 5634 5629 5627 5625 5623 5622 5620 5620 5622 5627 5631 5633 5636 5639 5642 5646 5650 5652 5656 5659 5663 5666 5669 5672 5674 5676 5677 5676 5676 5675 5673 5669 5666
5681 5676 5672 5666 5660 5655 5651 5647 5643 5638 5634 5631 5628 5625 5623 5622 5620 5620 5621 5626 5629 5631 5633 5635 5638 5641 5643 5645 5650 5654 5657 5660 5662 5665 5668 5670 5670 5670 5670 5667 5664 5661 5657
5683 5679 5674 5669 5662 5657 5654 5649 5645 5640 5635 5632 5629 5627 5624 5623 5620 5619 5619 5625 5627 5628 5630 5632 5633 5635 5638 5640 5645 5649 5651 5654 5657 5659 5661 5662 5663 5663 5663 5663 5662 5658 5656
5686 5680 5675 5670 5665 5660 5656 5651 5647 5643 5639 5635 5632 5630 5627 5623 5621 5618 5618 5621 5623 5625 5627 5630 5632 5632 5635 5637 5640 5645 5648 5649 5651 5653 5654 5656 5656 5656 5657 5657 5657 5657 5655
5685 5680 5676 5672 5668 5663 5658 5654 5650 5646 5642 5639 5637 5634 5631 5627 5622 5620 5618 5618 5619 5623 5625 5627 5630 5630 5632 5634 5636 5639 5641 5643 5645 5646 5647 5648 5648 5648 5649 5650 5650 5651 5652
5685 5680 5677 5674 5670 5665 5661 5657 5653 5649 5645 5643 5640 5637 5634 5631 5627 5622 5620 5619 5619 5622 5624 5624 5625 5626 5628 5630 5632 5633 5636 5638 5639 5639 5640 5641 5641 5642 5642 5642 5642 5642 5642
5684 5682 5680 5676 5673 5669 5664 5660 5656 5652 5649 5646 5642 5639 5636 5633 5630 5627 5625 5625 5623 5624 5625 5624 5623 5623 5625 5626 5628 5630 5631 5633 5634 5633 5633 5633 5633 5634 5635 5635 5635 5634 5633
5684 5682 5680 5677 5674 5670 5667 5663 5659 5656 5651 5646 5644 5641 5637 5635 5631 5624 5623 5624 5624 5624 5624 5626 5625 5625 5624 5624 5625 5625 5626 5627 5627 5627 5627 5627 5627 5628 5629 5630 5631 5631 5631
5680 5680 5678 5676 5673 5670 5668 5666 5661 5655 5652 5646 5642 5638 5639 5634 5630 5627 5624 5622 5622 5622 5623 5626 5626 5625 5623 5623 5623 5623 5623 5623 5624 5624 5624 5624 5624 5625 5625 5625 5626 5628 5628
5673 5673 5673 5672 5671 5669 5667 5665 5663 5660 5653 5649 5645 5642 5638 5636 5633 5629 5627 5625 5624 5623 5625 5627 5627 5626 5625 5624 5623 5622 5622 5622 5622 5622 5622 5622 5623 5623 5622 5622 5623 5624 5624
5666 5666 5665 5666 5666 5666 5666 5664 5663 5661 5659 5659 5652 5646 5642 5638 5635 5632 5629 5627 5630 5629 5629 5629 5629 5628 5626 5626 5625 5624 5623 5622 5622 5622 5622 5622 5622 5622 5621 5621 5622 5622 5621
5656 5657 5657 5659 5660 5662 5662 5661 5660 5659 5658 5658 5657 5653 5646 5641 5636 5633 5630 5632 5635 5635 5634 5633 5631 5630 5629 5628 5627 5626 5625 5624 5623 5623 5623 5621 5622 5621 5621 5621 5621 5617 5620
5644 5644 5645 5649 5652 5654 5655 5656 5656 5655 5655 5656 5655 5654 5651 5644 5643 5641 5637 5637 5637 5637 5636 5635 5633 5632 5631 5630 5628 5627 5626 5625 5623 5623 5623 5622 5622 5622 5621 5620 5620 5618 5619
5633 5635 5636 5639 5641 5643 5645 5647 5649 5650 5650 5651 5652 5653 5648 5646 5646 5645 5644 5642 5640 5640 5638 5637 5635 5633 5632 5631 5630 5628 5627 5626 5625 5624 5623 5622 5622 5621 5621 5620 5620 5619 5619
5620 5622 5624 5626 5628 5629 5631 5635 5637 5640 5642 5643 5645 5646 5642 5640 5643 5644 5644 5644 5643 5642 5640 5638 5636 5635 5634 5632 5631 5630 5629 5628 5627 5626 5625 5623 5622 5621 5621 5620 5619 5618 5618
5605 5607 5609 5611 5612 5613 5616 5619 5621 5624 5627 5631 5634 5636 5637 5637 5638 5640 5641 5642 5641 5641 5640 5638 5637 5636 5634 5633 5632 5631 5631 5630 5629 5628 5626 5624 5622 5622 5621 5620 5619 5618 5618
5589 5591 5592 5594 5595 5596 5598 5600 5602 5605 5608 5612 5616 5621 5624 5627 5630 5633 5635 5636 5637 5637 5637 5636 5636 5635 5634 5632 5632 5631 5631 5631 5629 5627 5625 5624 5622 5622 5621 5620 5619 5619 5617
5574 5574 5575 5575 5576 5577 5578 5580 5581 5583 5586 5589 5594 5599 5605 5611 5616 5620 5624 5627 5629 5631 5632 5632 5632 5632 5633 5632 5630 5630 5629 5627 5625 5625 5624 5622 5622 5621 5620 5619 5619 5618 5617
5559 5558 5557 5557 5556 5556 5557 5558 5559 5560 5562 5565 5569 5574 5580 5588 5596 5602 5608 5613 5617 5621 5624 5626 5628 5629 5629 5629 5629 5627 5625 5622 5620 5619 5620 5620 5619 5619 5618 5618 5617 5616 5615